Flag for Poland Weather past 2 weeks in Kraków, Poland

Now
55 °F

Passing clouds.


Feels Like: 55 °F
Forecast: 50 / 67 °F
Wind: 3 mph from West

Location: Krakow Airport

Current Time: Aug 27, 2014 at 11:33:23 PM

Latest Report: Aug 27, 2014 at 11:00 PM


Visibility: N/A

Pressure: 29.98 "Hg

Humidity: 82%

Dew point: 50 °F

Location of KrakówLocation

Historic Weather in Kraków — Graph

°F

Kraków temperature yesterday

Maximum temperature yesterday: 57 °F (at 2:30 PM)
Minimum temperature yesterday: 46 °F (at 2:00 AM)
Average temperature yesterday: 53 °F

Past Weeks' High & Low Weather Summary

 TemperatureHumidityPressure
High75 °F (Aug 18, 1:00 PM)100% (Aug 13, 1:30 AM)30.09 "Hg (Aug 13, 1:30 AM)
Low43 °F (Aug 22, 4:30 AM)36% (Aug 18, 2:00 PM)29.62 "Hg (Aug 13, 11:00 PM)
Average59 °F82%29.93 "Hg
* Reported Aug 12 10:00 PM — Aug 27 10:30 PM, Kraków, Weather by CustomWeather, © 2014

Note: Actual official high and low records may vary slightly from our data, if they occured in-between our weather recording intervals... More about our weather records

Advertising

Kraków weather history for previous 24 hours

 ConditionsComfort  
Time TempWeatherWind HumidityBarometerVisibility
10:30 PM
Aug 27
55 °FPassing clouds.8 mph88%29.98 "HgN/A
10:00 PM55 °FPassing clouds.9 mph88%29.98 "HgN/A
9:30 PM55 °FClear.6 mph88%29.95 "Hg10 mi
9:00 PM55 °FPassing clouds.5 mph88%29.95 "HgN/A
8:00 PM57 °FScattered clouds.7 mph88%29.95 "HgN/A
7:30 PM57 °FPartly sunny.6 mph88%29.95 "HgN/A
7:00 PM57 °FScattered clouds.7 mph88%29.92 "HgN/A
6:30 PM59 °FScattered clouds.8 mph77%29.92 "HgN/A
6:00 PM59 °FSunny.7 mph77%29.92 "Hg10 mi
5:00 PM59 °FPassing clouds.7 mph77%29.92 "HgN/A
4:30 PM59 °FSunny.6 mph77%29.92 "Hg10 mi
4:00 PM59 °FPassing clouds.5 mph72%29.89 "HgN/A
3:30 PM59 °FPassing clouds.7 mph63%29.89 "HgN/A
3:00 PM59 °FScattered clouds.7 mph72%29.89 "HgN/A
2:30 PM59 °FPassing clouds.3 mph77%29.89 "HgN/A
2:00 PM57 °FBroken clouds.2 mph77%29.89 "HgN/A
1:30 PM57 °FBroken clouds.3 mph77%29.86 "HgN/A
1:00 PM57 °FLight rain. Broken clouds.6 mph72%29.89 "HgN/A
12:30 PM59 °FScattered clouds.5 mph77%29.86 "HgN/A
12:00 PM57 °FScattered clouds.6 mph82%29.86 "HgN/A
11:30 AM57 °FLight rain. Partly sunny.6 mph82%29.86 "Hg5 mi
11:00 AM57 °FPartly sunny.6 mph88%29.86 "Hg5 mi
10:30 AM57 °FPartly sunny.5 mph82%29.86 "Hg5 mi
10:00 AM55 °FLight rain. Partly sunny.5 mph88%29.83 "Hg5 mi
9:30 AM55 °FLight rain. Partly sunny.2 mph94%29.83 "Hg5 mi
9:00 AM55 °FBroken clouds.3 mph94%29.83 "Hg5 mi
8:30 AM54 °FPartly sunny.3 mph100%29.83 "Hg5 mi
8:00 AM54 °FBroken clouds.2 mph100%29.80 "Hg4 mi
7:30 AM54 °FScattered clouds.No wind94%29.80 "Hg4 mi
7:00 AM54 °FFog.2 mph94%29.80 "Hg3 mi
6:30 AM54 °FFog.1 mph94%29.80 "Hg3 mi
6:00 AM54 °FLight rain. Fog.No wind94%29.80 "Hg3 mi
5:30 AM54 °FLight rain. Fog.1 mph94%29.80 "Hg3 mi
5:00 AM54 °FLight rain. Passing clouds.No wind94%29.80 "Hg4 mi
4:30 AM54 °FLight rain. Fog.No wind94%29.80 "Hg3 mi
4:00 AM54 °FLight rain. Fog.2 mph94%29.80 "Hg2 mi
3:30 AM54 °FFog.1 mph94%29.80 "Hg2 mi
3:00 AM54 °FLight rain. Fog.1 mph94%29.80 "Hg2 mi
2:00 AM54 °FFog.2 mph94%29.80 "Hg3 mi
1:30 AM54 °FPassing clouds.2 mph94%29.80 "Hg4 mi
1:00 AM54 °FPassing clouds.No wind94%29.77 "Hg4 mi
12:30 AM54 °FLight rain. Fog.No wind94%29.80 "Hg2 mi
12:00 AM54 °FLight rain. Fog.2 mph94%29.80 "Hg2 mi
11:30 PM
Aug 26
54 °FLight rain. Partly cloudy.2 mph94%29.80 "Hg4 mi
11:00 PM54 °FPartly cloudy.No wind94%29.77 "Hg4 mi
Weather by CustomWeather, © 2014

See weather overviewHow to use our weather pages